Weather History for Ashland, WI

Change the Weather History Date:

Saturday, May 18, 2013

  Actual Average Record
Temperature  
Mean Temperature 50 °F -  
Max Temperature 59 °F 66 °F 89 °F (2012)
Min Temperature 42 °F 41 °F 21 °F (1981)
Degree Days  
Heating Degree Days 14    
Moisture  
Dew Point 47 °F    
Average Humidity 92    
Maximum Humidity 100    
Minimum Humidity 73    
Precipitation  
Precipitation 1.09 in - - ()
Sea Level Pressure  
Sea Level Pressure 29.99 in    
Wind  
Wind Speed 2 mph (NNE)    
Max Wind Speed 10 mph    
Max Gust Speed -    
Visibility 6 miles    
Events Fog , Rain , Thunderstorm    
Averages and records for this station are not official NWS values.
T = Trace of Precipitation, MM = Missing Value Source: NWS Daily Summary

Daily Weather History Graph

Daily Weather History Graph

Search for Another Location

Airport:

Trip Planner

Search our weather history database for the weather conditions in past years. The results will help you decide how hot, cold, wet, or windy it might be!

Date:

Astronomy

May. 18, 2013 Rise Set
Actual Time 5:26 AM CDT 8:34 PM CDT
Civil Twilight 4:49 AM CDT 9:11 PM CDT
Nautical Twilight 4:03 AM CDT 9:58 PM CDT
Astronomical Twilight 3:05 AM CDT 10:56 PM CDT
Moon 1:14 PM CDT (5/18) 1:44 AM CDT (5/18)
Length of Visible Light 16h 21m
Length of Day
15h 08m
First Quarter, 55% of the Moon is Illuminated
May 18
First Quarter
May 24
Full
May 31
Last Quarter
Jun 8
New
Jun 16
First Quarter

Hourly Weather History & Observations

Time (CDT) Temp. Windchill Dew Point Humidity Pressure Visibility Wind Dir Wind Speed Gust Speed Precip Events Conditions
12:53 AM 46.0 °F - 37.9 °F 73% 30.08 in 10.0 mi Calm Calm - N/A   Overcast
1:53 AM 46.0 °F - 39.0 °F 76% 30.07 in 10.0 mi Calm Calm - N/A   Overcast
2:53 AM 45.0 °F - 41.0 °F 86% 30.06 in 10.0 mi Calm Calm - 0.00 in   Overcast
3:50 AM 44.6 °F - 42.8 °F 93% 30.04 in 10.0 mi Calm Calm - 0.02 in Rain Light Rain
3:53 AM 45.0 °F - 42.1 °F 90% 30.06 in 9.0 mi Calm Calm - 0.02 in Rain Light Rain
4:08 AM 44.6 °F 42.2 °F 42.8 °F 93% 30.03 in 2.5 mi NE 4.6 mph - 0.09 in Rain Rain
4:17 AM 44.6 °F 43.1 °F 42.8 °F 93% 30.03 in 4.0 mi NE 3.5 mph - 0.12 in Rain Light Rain
4:53 AM 45.0 °F 43.5 °F 43.0 °F 93% 30.05 in 10.0 mi NNE 3.5 mph - 0.15 in Rain Light Rain
5:53 AM 43.0 °F 40.3 °F 41.0 °F 93% 30.06 in 6.0 mi North 4.6 mph - 0.08 in Rain Rain
6:50 AM 42.8 °F - 42.8 °F 100% 30.04 in 2.5 mi Calm Calm - 0.24 in Rain , Thunderstorm Rain
6:53 AM 44.1 °F - 42.1 °F 93% 30.06 in 3.0 mi Calm Calm - 0.25 in Rain , Thunderstorm Rain
7:00 AM 44.6 °F - 42.8 °F 93% 30.05 in 2.5 mi Calm Calm - 0.04 in Rain , Thunderstorm Rain
7:05 AM 44.6 °F - 42.8 °F 93% 30.05 in 2.0 mi Calm Calm - 0.06 in Rain Rain
7:18 AM 44.6 °F - 42.8 °F 93% 30.05 in 1.5 mi Calm Calm - 0.13 in Rain Rain
7:26 AM 44.6 °F - 42.8 °F 93% 30.04 in 1.8 mi Calm Calm - 0.17 in Rain Rain
7:43 AM 44.6 °F 42.2 °F 42.8 °F 93% 30.05 in 2.5 mi NW 4.6 mph - 0.24 in Rain Rain
7:53 AM 44.1 °F - 43.0 °F 96% 30.07 in 2.0 mi Calm Calm - 0.28 in Rain Rain
7:57 AM 44.6 °F - 42.8 °F 93% 30.05 in 1.8 mi Calm Calm - 0.02 in Rain Rain
8:26 AM 44.6 °F - 42.8 °F 93% 30.04 in 1.5 mi Calm Calm - 0.15 in Rain Rain
8:35 AM 44.6 °F - 44.6 °F 100% 30.04 in 2.5 mi Calm Calm - 0.17 in Rain Light Rain
8:53 AM 46.0 °F - 44.1 °F 93% 30.06 in 4.0 mi Calm Calm - 0.21 in Rain Light Rain
9:34 AM 50.0 °F - 48.2 °F 94% 30.02 in 2.0 mi Calm Calm - 0.09 in Rain Rain
9:44 AM 50.0 °F - 48.2 °F 94% 30.02 in 7.0 mi Calm Calm - 0.09 in Rain Light Rain
9:53 AM 51.1 °F - 50.0 °F 96% 30.04 in 10.0 mi Calm Calm - 0.09 in   Overcast
10:28 AM 50.0 °F - 48.2 °F 94% 30.02 in 6.0 mi Calm Calm - N/A   Overcast
10:53 AM 53.1 °F - 51.1 °F 93% 30.03 in 8.0 mi Calm Calm - 0.01 in   Overcast
11:53 AM 54.0 °F - 52.0 °F 93% 30.03 in 10.0 mi Calm Calm - N/A   Overcast
12:53 PM 59.0 °F - 55.0 °F 87% 29.99 in 10.0 mi ESE 4.6 mph - N/A   Mostly Cloudy
1:05 PM 59.0 °F - 55.4 °F 88% 29.96 in 10.0 mi Variable 3.5 mph - N/A   Mostly Cloudy
1:42 PM 53.6 °F - 51.8 °F 94% 29.95 in 4.0 mi NNE 8.1 mph - N/A   Overcast
2:02 PM 51.8 °F - 50.0 °F 94% 29.96 in 5.0 mi North 9.2 mph - N/A   Overcast
2:19 PM 51.8 °F - 50.0 °F 94% 29.95 in 1.8 mi North 10.4 mph - N/A   Overcast
2:27 PM 53.6 °F - 51.8 °F 94% 29.96 in 3.0 mi NNE 10.4 mph - N/A   Overcast
2:51 PM 53.6 °F - 51.8 °F 94% 29.95 in 10.0 mi NNE 9.2 mph - N/A   Overcast
2:53 PM 55.0 °F - 52.0 °F 89% 29.96 in 10.0 mi NE 10.4 mph - N/A   Overcast
3:10 PM 57.2 °F - 53.6 °F 88% 29.95 in 10.0 mi NNE 6.9 mph - N/A   Overcast
3:53 PM 55.9 °F - 52.0 °F 87% 29.97 in 10.0 mi North 9.2 mph - N/A   Overcast
4:35 PM 57.2 °F - 51.8 °F 82% 29.94 in 10.0 mi NNE 5.8 mph - N/A   Mostly Cloudy
4:53 PM 59.0 °F - 53.1 °F 81% 29.96 in 10.0 mi NNE 5.8 mph - N/A   Partly Cloudy
5:53 PM 57.9 °F - 53.1 °F 84% 29.95 in 10.0 mi North 4.6 mph - N/A   Clear
6:53 PM 54.0 °F - 50.0 °F 86% 29.94 in 10.0 mi North 4.6 mph - N/A   Clear
7:53 PM 51.1 °F - 48.0 °F 89% 29.95 in 10.0 mi North 3.5 mph - N/A   Partly Cloudy
8:53 PM 51.1 °F - 48.9 °F 92% 29.94 in 9.0 mi Calm Calm - N/A   Overcast
9:53 PM 51.1 °F - 48.9 °F 92% 29.93 in 9.0 mi North 4.6 mph - N/A   Overcast
10:38 PM 50.0 °F - 48.2 °F 94% 29.90 in 2.0 mi North 4.6 mph - N/A   Overcast
10:43 PM 50.0 °F - 48.2 °F 94% 29.90 in 0.8 mi North 3.5 mph - N/A   Overcast
10:53 PM 50.0 °F - 48.9 °F 96% 29.91 in 0.5 mi North 3.5 mph - N/A Fog Fog
11:17 PM 50.0 °F - 48.2 °F 94% 29.89 in 1.8 mi NE 3.5 mph - N/A   Overcast
11:24 PM 50.0 °F - 48.2 °F 94% 29.89 in 3.0 mi Calm Calm - N/A   Overcast
11:35 PM 50.0 °F - 48.2 °F 94% 29.88 in 2.5 mi NE 4.6 mph - N/A   Overcast
11:44 PM 50.0 °F - 48.2 °F 94% 29.88 in 0.8 mi NE 3.5 mph - N/A   Overcast
11:53 PM 50.0 °F - 48.9 °F 96% 29.90 in 0.5 mi NNE 3.5 mph - N/A Fog Fog